Location: B�hl
(48.6968°N, 8.1352°E)
Time: 00:28:19
(UTC+00:00)

USA 306 - Pass Details

Date: 08 March 2021
Orbit: 564 x 577 km, 54.0° (Epoch: 13 April)

Event Time Altitude Azimuth Distance (km) Brightness Sun altitude
Rises 18:28:08 0° 294° (WNW) 2,776 8.0 -11.7°
Reaches altitude 10° 18:30:26 10° 299° (WNW) 1,874 6.7 -12.1°
Maximum altitude 18:34:37 55° 18° (NNE) 686 3.2 -12.7°
Enters shadow 18:37:17 21° 90° (E) 1,301 4.1 -13.2°
